User: anonymous   Login
Location: Caltech
(34.1382°N, 118.1253°W)
Time: 22:55:07
(UTC-07:00)
Language:

ITAMSAT 1 - Orbit

View from above orbital plane
View from above orbital plane
View from above satellite
View from above satellite

Ground track
Ground track

The orbit data is extracted from the following two-line orbital elements,

1 22826U 93061D   16209.91371589  .00000009  00000-0  20910-4 0  9995
2 22826 098.7567 166.5389 0008741 182.6377 177.4761 14.30287634190973
Epoch (UTC): 27 July 2016 21:55:45
Eccentricity: 0.0008741
inclination: 98.7567°
perigee height: 784 km
apogee height: 797 km
right ascension of ascending node: 166.5389°
argument of perigee: 182.6377°
revolutions per day: 14.30287634
mean anomaly at epoch: 177.4761°
orbit number at epoch: 19097

The dashed part of the orbit path shows where the satellite is in the earth's shadow,  

DLR